Time,TemperatureF,DewpointF,PressureIn,WindDirection,WindDirectionDegrees,WindSpeedMPH,WindSpeedGustMPH,Humidity,HourlyPrecipIn,Conditions,Clouds,dailyrainin,SoftwareType,DateUTC
2013-12-04 00:01:00,52.2,49.4,29.81,SSE,168,0.0,1.0,90,0.00,,,0.00,Wunderground v.1.15,2013-12-04 05:01:00,
2013-12-04 00:02:00,52.2,49.4,29.81,SSE,168,0.0,1.0,90,0.00,,,0.00,Wunderground v.1.15,2013-12-04 05:02:00,
2013-12-04 00:04:00,52.1,49.3,29.81,SSE,167,1.0,1.0,90,0.00,,,0.00,Wunderground v.1.15,2013-12-04 05:04:00,
2013-12-04 00:05:00,52.0,49.2,29.81,SSE,167,0.0,1.0,90,0.00,,,0.00,Wunderground v.1.15,2013-12-04 05:05:00,
2013-12-04 00:06:00,51.9,49.1,29.81,SSE,167,0.0,1.0,90,0.00,,,0.00,Wunderground v.1.15,2013-12-04 05:06:00,
2013-12-04 00:12:00,51.5,48.7,29.81,SSE,167,0.0,2.0,90,0.00,,,0.00,Wunderground v.1.15,2013-12-04 05:12:00,
2013-12-04 00:15:00,51.2,48.4,29.81,SSE,167,2.0,2.0,90,0.00,,,0.00,Wunderground v.1.15,2013-12-04 05:15:00,
2013-12-04 00:21:00,50.9,48.4,29.81,SSE,167,0.0,0.0,91,0.00,,,0.00,Wunderground v.1.15,2013-12-04 05:21:00,
2013-12-04 00:27:00,50.6,48.1,29.81,SSE,168,0.0,0.0,91,0.00,,,0.00,Wunderground v.1.15,2013-12-04 05:27:00,
2013-12-04 00:32:00,50.2,47.7,29.80,SSE,167,0.0,0.0,91,0.00,,,0.00,Wunderground v.1.15,2013-12-04 05:32:00,
2013-12-04 00:38:00,49.6,47.1,29.80,SSE,167,0.0,0.0,91,0.00,,,0.00,Wunderground v.1.15,2013-12-04 05:38:00,
2013-12-04 00:44:00,49.1,46.6,29.79,SSE,167,0.0,1.0,91,0.00,,,0.00,Wunderground v.1.15,2013-12-04 05:44:00,
2013-12-04 00:50:00,48.7,46.5,29.79,SSE,167,2.0,2.0,92,0.00,,,0.00,Wunderground v.1.15,2013-12-04 05:50:00,
2013-12-04 00:55:00,48.7,46.8,29.79,SSE,167,0.0,3.0,93,0.00,,,0.00,Wunderground v.1.15,2013-12-04 05:55:00,
2013-12-04 01:01:00,48.8,46.9,29.79,SSE,167,2.0,2.0,93,0.00,,,0.00,Wunderground v.1.15,2013-12-04 06:01:00,
2013-12-04 01:07:00,49.1,47.4,29.79,SSE,167,1.0,3.0,94,0.00,,,0.00,Wunderground v.1.15,2013-12-04 06:07:00,
2013-12-04 01:13:00,49.2,47.5,29.79,SSE,167,3.0,4.0,94,0.00,,,0.00,Wunderground v.1.15,2013-12-04 06:13:00,
2013-12-04 01:18:00,49.0,47.3,29.79,SSE,167,0.0,4.0,94,0.00,,,0.00,Wunderground v.1.15,2013-12-04 06:18:00,
2013-12-04 01:24:00,49.0,47.3,29.79,SSE,167,0.0,2.0,94,0.00,,,0.00,Wunderground v.1.15,2013-12-04 06:24:00,
2013-12-04 01:30:00,48.8,47.2,29.79,SSE,167,0.0,0.0,94,0.00,,,0.00,Wunderground v.1.15,2013-12-04 06:30:00,
2013-12-04 01:35:00,48.4,46.8,29.79,SSE,167,0.0,0.0,94,0.00,,,0.00,Wunderground v.1.15,2013-12-04 06:35:00,
2013-12-04 01:41:00,47.7,46.1,29.79,SSE,166,0.0,0.0,94,0.00,,,0.00,Wunderground v.1.15,2013-12-04 06:41:00,
2013-12-04 01:47:00,47.3,45.4,29.79,SSE,167,0.0,0.0,93,0.00,,,0.00,Wunderground v.1.15,2013-12-04 06:47:00,
2013-12-04 01:53:00,46.9,45.0,29.79,SSE,166,0.0,0.0,93,0.00,,,0.00,Wunderground v.1.15,2013-12-04 06:53:00,
2013-12-04 01:58:00,47.1,45.5,29.80,SSE,167,0.0,0.0,94,0.00,,,0.00,Wunderground v.1.15,2013-12-04 06:58:00,
2013-12-04 02:03:00,47.0,45.4,29.80,SSE,167,0.0,0.0,94,0.00,,,0.00,Wunderground v.1.15,2013-12-04 07:03:00,
2013-12-04 02:09:00,46.7,45.1,29.80,SSE,167,0.0,0.0,94,0.00,,,0.00,Wunderground v.1.15,2013-12-04 07:09:00,
2013-12-04 02:14:00,46.3,44.7,29.80,SSE,167,0.0,0.0,94,0.00,,,0.00,Wunderground v.1.15,2013-12-04 07:14:00,
2013-12-04 02:19:00,46.0,44.4,29.80,SSE,166,0.0,0.0,94,0.00,,,0.00,Wunderground v.1.15,2013-12-04 07:19:00,
2013-12-04 02:24:00,46.0,44.4,29.81,SSE,167,0.0,1.0,94,0.00,,,0.00,Wunderground v.1.15,2013-12-04 07:24:00,
2013-12-04 02:29:00,45.9,44.3,29.81,SSE,167,0.0,1.0,94,0.00,,,0.00,Wunderground v.1.15,2013-12-04 07:29:00,
2013-12-04 02:34:00,45.8,44.2,29.81,SSE,167,0.0,0.0,94,0.00,,,0.00,Wunderground v.1.15,2013-12-04 07:34:00,
2013-12-04 02:39:00,45.6,44.0,29.81,SSE,167,0.0,0.0,94,0.00,,,0.00,Wunderground v.1.15,2013-12-04 07:39:00,
2013-12-04 02:44:00,45.7,44.4,29.82,SSE,166,0.0,0.0,95,0.00,,,0.00,Wunderground v.1.15,2013-12-04 07:44:00,
2013-12-04 02:49:00,45.8,44.4,29.82,SSE,167,0.0,0.0,95,0.00,,,0.00,Wunderground v.1.15,2013-12-04 07:49:00,
2013-12-04 02:54:00,45.9,44.5,29.82,SSE,167,0.0,0.0,95,0.00,,,0.00,Wunderground v.1.15,2013-12-04 07:54:00,
2013-12-04 02:59:00,46.2,44.8,29.82,SSE,166,0.0,3.0,95,0.00,,,0.00,Wunderground v.1.15,2013-12-04 07:59:00,
2013-12-04 03:04:00,46.7,45.3,29.82,SSE,166,2.0,2.0,95,0.00,,,0.00,Wunderground v.1.15,2013-12-04 08:04:00,
2013-12-04 03:09:00,47.0,45.6,29.82,SSE,167,0.0,2.0,95,0.00,,,0.00,Wunderground v.1.15,2013-12-04 08:09:00,
2013-12-04 03:14:00,47.4,46.0,29.83,SSE,167,0.0,2.0,95,0.00,,,0.00,Wunderground v.1.15,2013-12-04 08:14:00,
2013-12-04 03:19:00,48.1,47.0,29.83,SSE,167,0.0,2.0,96,0.00,,,0.00,Wunderground v.1.15,2013-12-04 08:19:00,
2013-12-04 03:24:00,48.6,47.5,29.83,SSE,166,0.0,0.0,96,0.00,,,0.00,Wunderground v.1.15,2013-12-04 08:24:00,
2013-12-04 03:29:00,49.0,47.9,29.83,SSE,167,0.0,0.0,96,0.00,,,0.00,Wunderground v.1.15,2013-12-04 08:29:00,
2013-12-04 03:34:00,49.2,48.1,29.83,SSE,166,0.0,0.0,96,0.00,,,0.00,Wunderground v.1.15,2013-12-04 08:34:00,
2013-12-04 03:39:00,49.4,48.3,29.83,SSE,166,0.0,0.0,96,0.00,,,0.00,Wunderground v.1.15,2013-12-04 08:39:00,
2013-12-04 03:44:00,49.5,48.4,29.83,SSE,166,0.0,1.0,96,0.00,,,0.00,Wunderground v.1.15,2013-12-04 08:44:00,
2013-12-04 03:49:00,49.5,48.4,29.83,SSE,167,0.0,3.0,96,0.00,,,0.00,Wunderground v.1.15,2013-12-04 08:49:00,
2013-12-04 03:54:00,49.7,48.6,29.83,SSE,166,0.0,3.0,96,0.00,,,0.00,Wunderground v.1.15,2013-12-04 08:54:00,
2013-12-04 03:59:00,49.9,48.8,29.83,SSE,167,2.0,4.0,96,0.00,,,0.00,Wunderground v.1.15,2013-12-04 08:59:00,
2013-12-04 04:04:00,50.2,49.1,29.83,SSE,167,0.0,3.0,96,0.00,,,0.00,Wunderground v.1.15,2013-12-04 09:04:00,
2013-12-04 04:09:00,50.5,49.4,29.83,SSE,166,0.0,3.0,96,0.00,,,0.00,Wunderground v.1.15,2013-12-04 09:09:00,
2013-12-04 04:14:00,50.8,49.7,29.82,SSE,167,0.0,2.0,96,0.00,,,0.00,Wunderground v.1.15,2013-12-04 09:14:00,
2013-12-04 04:19:00,51.0,49.9,29.82,SSE,167,0.0,4.0,96,0.00,,,0.00,Wunderground v.1.15,2013-12-04 09:19:00,
2013-12-04 04:24:00,51.1,50.0,29.82,SSE,165,1.0,5.0,96,0.00,,,0.00,Wunderground v.1.15,2013-12-04 09:24:00,
2013-12-04 04:29:00,51.1,50.0,29.82,SSE,165,3.0,5.0,96,0.00,,,0.00,Wunderground v.1.15,2013-12-04 09:29:00,
2013-12-04 04:34:00,51.2,50.1,29.81,SSE,165,0.0,5.0,96,0.00,,,0.00,Wunderground v.1.15,2013-12-04 09:34:00,
2013-12-04 04:39:00,51.3,50.2,29.82,SSE,165,2.0,5.0,96,0.00,,,0.00,Wunderground v.1.15,2013-12-04 09:39:00,
2013-12-04 04:44:00,51.4,50.3,29.81,SSE,165,3.0,4.0,96,0.00,,,0.00,Wunderground v.1.15,2013-12-04 09:44:00,
2013-12-04 04:49:00,51.5,50.4,29.81,SSE,163,5.0,5.0,96,0.00,,,0.00,Wunderground v.1.15,2013-12-04 09:49:00,
2013-12-04 04:54:00,51.5,50.4,29.81,SSE,162,2.0,5.0,96,0.00,,,0.00,Wunderground v.1.15,2013-12-04 09:54:00,
2013-12-04 04:59:00,51.6,50.5,29.81,SSE,162,2.0,5.0,96,0.00,,,0.00,Wunderground v.1.15,2013-12-04 09:59:00,
2013-12-04 05:04:00,51.7,50.6,29.81,SSE,163,2.0,4.0,96,0.00,,,0.00,Wunderground v.1.15,2013-12-04 10:04:00,
2013-12-04 05:09:00,51.8,50.7,29.81,SSE,162,4.0,4.0,96,0.00,,,0.00,Wunderground v.1.15,2013-12-04 10:09:00,
2013-12-04 05:14:00,51.9,50.8,29.81,SSE,162,2.0,4.0,96,0.00,,,0.00,Wunderground v.1.15,2013-12-04 10:14:00,
2013-12-04 05:19:00,51.9,50.8,29.81,SSE,163,1.0,4.0,96,0.00,,,0.00,Wunderground v.1.15,2013-12-04 10:19:00,
2013-12-04 05:24:00,51.9,50.8,29.81,SSE,163,0.0,2.0,96,0.00,,,0.00,Wunderground v.1.15,2013-12-04 10:24:00,
2013-12-04 05:29:00,51.9,50.8,29.81,SSE,163,3.0,4.0,96,0.00,,,0.00,Wunderground v.1.15,2013-12-04 10:29:00,
2013-12-04 05:34:00,52.0,50.9,29.81,SSE,163,0.0,4.0,96,0.00,,,0.00,Wunderground v.1.15,2013-12-04 10:34:00,
2013-12-04 05:39:00,52.0,50.9,29.80,SSE,162,0.0,4.0,96,0.00,,,0.00,Wunderground v.1.15,2013-12-04 10:39:00,
2013-12-04 05:44:00,52.0,50.9,29.80,SSE,163,0.0,3.0,96,0.00,,,0.00,Wunderground v.1.15,2013-12-04 10:44:00,
2013-12-04 05:49:00,52.0,50.9,29.80,SSE,163,1.0,4.0,96,0.00,,,0.00,Wunderground v.1.15,2013-12-04 10:49:00,
2013-12-04 05:55:00,52.1,51.0,29.81,SSE,163,0.0,4.0,96,0.00,,,0.00,Wunderground v.1.15,2013-12-04 10:55:00,
2013-12-04 06:00:00,52.1,51.0,29.80,SSE,163,3.0,3.0,96,0.00,,,0.00,Wunderground v.1.15,2013-12-04 11:00:00,
2013-12-04 06:05:00,52.1,51.0,29.81,SSE,162,0.0,5.0,96,0.00,,,0.00,Wunderground v.1.15,2013-12-04 11:05:00,
2013-12-04 06:09:00,52.2,51.1,29.81,SSE,162,0.0,1.0,96,0.00,,,0.00,Wunderground v.1.15,2013-12-04 11:09:00,
2013-12-04 06:14:00,52.2,51.1,29.81,SSE,163,1.0,5.0,96,0.00,,,0.00,Wunderground v.1.15,2013-12-04 11:14:00,
2013-12-04 06:19:00,52.3,51.2,29.81,SSE,155,2.0,2.0,96,0.00,,,0.00,Wunderground v.1.15,2013-12-04 11:19:00,
2013-12-04 06:24:00,52.3,51.2,29.81,SSE,154,2.0,5.0,96,0.00,,,0.00,Wunderground v.1.15,2013-12-04 11:24:00,
2013-12-04 06:30:00,52.4,51.3,29.81,SSE,149,2.0,3.0,96,0.00,,,0.00,Wunderground v.1.15,2013-12-04 11:30:00,
2013-12-04 06:34:00,52.4,51.3,29.81,SE,140,3.0,9.0,96,0.00,,,0.00,Wunderground v.1.15,2013-12-04 11:34:00,
2013-12-04 06:40:00,52.5,51.4,29.81,SE,135,2.0,4.0,96,0.00,,,0.00,Wunderground v.1.15,2013-12-04 11:40:00,
2013-12-04 06:45:00,52.5,51.4,29.81,SE,135,1.0,5.0,96,0.00,,,0.00,Wunderground v.1.15,2013-12-04 11:45:00,
2013-12-04 06:50:00,52.6,51.5,29.81,SE,135,0.0,2.0,96,0.00,,,0.00,Wunderground v.1.15,2013-12-04 11:50:00,
2013-12-04 06:55:00,52.5,51.4,29.81,SE,135,2.0,4.0,96,0.00,,,0.00,Wunderground v.1.15,2013-12-04 11:55:00,
2013-12-04 06:59:00,52.6,51.5,29.81,SE,135,0.0,1.0,96,0.00,,,0.00,Wunderground v.1.15,2013-12-04 11:59:00,
2013-12-04 07:05:00,52.6,51.5,29.81,SE,135,3.0,6.0,96,0.00,,,0.00,Wunderground v.1.15,2013-12-04 12:05:00,
2013-12-04 07:10:00,52.6,51.5,29.81,SE,135,4.0,5.0,96,0.00,,,0.00,Wunderground v.1.15,2013-12-04 12:10:00,
2013-12-04 07:15:00,52.7,51.9,29.81,SE,135,1.0,5.0,97,0.00,,,0.00,Wunderground v.1.15,2013-12-04 12:15:00,
2013-12-04 07:20:00,52.7,51.6,29.81,SE,134,0.0,3.0,96,0.00,,,0.00,Wunderground v.1.15,2013-12-04 12:20:00,
2013-12-04 07:25:00,52.8,51.7,29.82,SE,132,2.0,8.0,96,0.00,,,0.00,Wunderground v.1.15,2013-12-04 12:25:00,
2013-12-04 07:30:00,52.8,51.7,29.82,SE,132,7.0,7.0,96,0.00,,,0.00,Wunderground v.1.15,2013-12-04 12:30:00,
2013-12-04 07:35:00,52.9,51.8,29.82,SE,130,5.0,7.0,96,0.00,,,0.00,Wunderground v.1.15,2013-12-04 12:35:00,
2013-12-04 07:40:00,52.9,51.8,29.82,SE,132,2.0,3.0,96,0.00,,,0.00,Wunderground v.1.15,2013-12-04 12:40:00,
2013-12-04 07:45:00,52.9,51.8,29.82,SE,131,0.0,6.0,96,0.00,,,0.00,Wunderground v.1.15,2013-12-04 12:45:00,
2013-12-04 07:50:00,52.9,51.8,29.81,SE,130,2.0,5.0,96,0.00,,,0.00,Wunderground v.1.15,2013-12-04 12:50:00,
2013-12-04 07:55:00,52.9,51.8,29.81,SE,131,3.0,7.0,96,0.00,,,0.00,Wunderground v.1.15,2013-12-04 12:55:00,
2013-12-04 08:00:00,53.0,51.9,29.81,SE,131,3.0,4.0,96,0.00,,,0.00,Wunderground v.1.15,2013-12-04 13:00:00,
2013-12-04 08:05:00,53.0,52.2,29.81,SE,131,2.0,6.0,97,0.00,,,0.00,Wunderground v.1.15,2013-12-04 13:05:00,
2013-12-04 08:10:00,53.0,52.2,29.81,SE,131,1.0,6.0,97,0.00,,,0.00,Wunderground v.1.15,2013-12-04 13:10:00,
2013-12-04 08:15:00,53.1,52.3,29.81,SE,130,3.0,7.0,97,0.00,,,0.00,Wunderground v.1.15,2013-12-04 13:15:00,
2013-12-04 08:20:00,53.2,52.4,29.81,SE,130,4.0,4.0,97,0.00,,,0.00,Wunderground v.1.15,2013-12-04 13:20:00,
2013-12-04 08:25:00,53.2,52.4,29.81,SE,133,3.0,6.0,97,0.00,,,0.00,Wunderground v.1.15,2013-12-04 13:25:00,
2013-12-04 08:30:00,53.2,52.4,29.81,SSE,149,1.0,5.0,97,0.00,,,0.00,Wunderground v.1.15,2013-12-04 13:30:00,
2013-12-04 08:35:00,53.3,52.5,29.81,SE,143,1.0,11.0,97,0.00,,,0.00,Wunderground v.1.15,2013-12-04 13:35:00,
2013-12-04 08:40:00,53.4,52.6,29.81,SE,144,5.0,5.0,97,0.00,,,0.00,Wunderground v.1.15,2013-12-04 13:40:00,
2013-12-04 08:45:00,53.5,52.7,29.81,SSE,154,4.0,11.0,97,0.00,,,0.00,Wunderground v.1.15,2013-12-04 13:45:00,
2013-12-04 08:50:00,53.7,52.9,29.81,SSE,153,4.0,5.0,97,0.00,,,0.00,Wunderground v.1.15,2013-12-04 13:50:00,
2013-12-04 08:55:00,53.8,53.0,29.81,SSE,149,3.0,11.0,97,0.00,,,0.00,Wunderground v.1.15,2013-12-04 13:55:00,
2013-12-04 09:00:00,54.0,53.2,29.81,SE,131,3.0,5.0,97,0.00,,,0.00,Wunderground v.1.15,2013-12-04 14:00:00,
2013-12-04 09:06:00,54.1,53.3,29.81,SE,135,4.0,9.0,97,0.00,,,0.00,Wunderground v.1.15,2013-12-04 14:06:00,
2013-12-04 09:11:00,54.2,53.4,29.81,SE,143,2.0,8.0,97,0.00,,,0.00,Wunderground v.1.15,2013-12-04 14:11:00,
2013-12-04 09:16:00,54.3,53.5,29.81,SE,144,6.0,10.0,97,0.00,,,0.00,Wunderground v.1.15,2013-12-04 14:16:00,
2013-12-04 09:21:00,54.4,53.6,29.80,SSE,152,6.0,9.0,97,0.00,,,0.00,Wunderground v.1.15,2013-12-04 14:21:00,
2013-12-04 09:26:00,54.5,53.7,29.80,SE,146,6.0,9.0,97,0.00,,,0.00,Wunderground v.1.15,2013-12-04 14:26:00,
2013-12-04 09:30:00,54.6,53.8,29.81,SE,142,3.0,6.0,97,0.00,,,0.00,Wunderground v.1.15,2013-12-04 14:30:00,
2013-12-04 09:36:00,54.8,54.0,29.81,SE,142,3.0,6.0,97,0.00,,,0.00,Wunderground v.1.15,2013-12-04 14:36:00,
2013-12-04 09:41:00,54.9,54.1,29.81,SSE,157,5.0,7.0,97,0.00,,,0.00,Wunderground v.1.15,2013-12-04 14:41:00,
2013-12-04 09:46:00,55.1,54.3,29.82,SSE,158,3.0,7.0,97,0.00,,,0.00,Wunderground v.1.15,2013-12-04 14:46:00,
2013-12-04 09:51:00,55.3,54.5,29.81,SSE,149,5.0,9.0,97,0.00,,,0.00,Wunderground v.1.15,2013-12-04 14:51:00,
2013-12-04 09:56:00,55.5,54.7,29.81,SSE,159,7.0,12.0,97,0.00,,,0.00,Wunderground v.1.15,2013-12-04 14:56:00,
2013-12-04 10:01:00,55.7,54.9,29.81,SSE,155,4.0,6.0,97,0.00,,,0.00,Wunderground v.1.15,2013-12-04 15:01:00,
2013-12-04 10:06:00,55.9,55.1,29.81,SSE,158,2.0,7.0,97,0.00,,,0.00,Wunderground v.1.15,2013-12-04 15:06:00,
2013-12-04 10:11:00,56.0,55.2,29.81,SSE,162,9.0,10.0,97,0.00,,,0.00,Wunderground v.1.15,2013-12-04 15:11:00,
2013-12-04 10:16:00,56.1,55.3,29.81,SSE,163,4.0,12.0,97,0.00,,,0.00,Wunderground v.1.15,2013-12-04 15:16:00,
2013-12-04 10:21:00,56.2,55.4,29.81,South,170,2.0,9.0,97,0.00,,,0.00,Wunderground v.1.15,2013-12-04 15:21:00,
2013-12-04 10:26:00,56.4,55.6,29.81,SSE,157,6.0,10.0,97,0.00,,,0.00,Wunderground v.1.15,2013-12-04 15:26:00,
2013-12-04 10:31:00,56.5,55.7,29.81,SE,144,4.0,5.0,97,0.00,,,0.00,Wunderground v.1.15,2013-12-04 15:31:00,
2013-12-04 10:36:00,56.6,55.8,29.81,SSE,149,4.0,11.0,97,0.00,,,0.00,Wunderground v.1.15,2013-12-04 15:36:00,
2013-12-04 10:41:00,56.7,55.9,29.80,SSE,161,6.0,6.0,97,0.00,,,0.00,Wunderground v.1.15,2013-12-04 15:41:00,
2013-12-04 10:46:00,56.8,56.0,29.80,SSE,161,8.0,10.0,97,0.00,,,0.00,Wunderground v.1.15,2013-12-04 15:46:00,
2013-12-04 10:51:00,57.0,56.2,29.80,SSE,157,3.0,7.0,97,0.00,,,0.00,Wunderground v.1.15,2013-12-04 15:51:00,
2013-12-04 10:56:00,57.2,56.4,29.80,SSE,156,2.0,7.0,97,0.00,,,0.00,Wunderground v.1.15,2013-12-04 15:56:00,
2013-12-04 11:01:00,57.4,56.6,29.79,SSE,153,3.0,6.0,97,0.00,,,0.00,Wunderground v.1.15,2013-12-04 16:01:00,
2013-12-04 11:06:00,57.6,56.8,29.79,SSE,152,7.0,10.0,97,0.00,,,0.00,Wunderground v.1.15,2013-12-04 16:06:00,
2013-12-04 11:11:00,57.8,57.0,29.79,South,175,7.0,9.0,97,0.00,,,0.00,Wunderground v.1.15,2013-12-04 16:11:00,
2013-12-04 11:16:00,58.1,57.3,29.79,SSE,161,5.0,14.0,97,0.00,,,0.00,Wunderground v.1.15,2013-12-04 16:16:00,
2013-12-04 11:21:00,58.3,57.5,29.79,South,175,6.0,14.0,97,0.00,,,0.00,Wunderground v.1.15,2013-12-04 16:21:00,
2013-12-04 11:26:00,58.6,57.8,29.79,South,186,0.0,14.0,97,0.00,,,0.00,Wunderground v.1.15,2013-12-04 16:26:00,
2013-12-04 11:31:00,58.9,58.1,29.79,South,187,3.0,11.0,97,0.00,,,0.00,Wunderground v.1.15,2013-12-04 16:31:00,
2013-12-04 11:36:00,59.0,58.2,29.79,SSE,153,12.0,13.0,97,0.00,,,0.00,Wunderground v.1.15,2013-12-04 16:36:00,
2013-12-04 11:41:00,59.0,58.2,29.78,South,172,5.0,7.0,97,0.00,,,0.00,Wunderground v.1.15,2013-12-04 16:41:00,
2013-12-04 11:46:00,59.1,58.2,29.78,South,177,4.0,13.0,97,0.00,,,0.00,Wunderground v.1.15,2013-12-04 16:46:00,
2013-12-04 11:51:00,59.3,58.4,29.77,SSE,157,6.0,10.0,97,0.00,,,0.00,Wunderground v.1.15,2013-12-04 16:51:00,
2013-12-04 11:56:00,59.6,58.7,29.77,SSE,165,4.0,11.0,97,0.00,,,0.00,Wunderground v.1.15,2013-12-04 16:56:00,
2013-12-04 12:01:00,60.0,59.1,29.77,South,183,5.0,9.0,97,0.00,,,0.00,Wunderground v.1.15,2013-12-04 17:01:00,
2013-12-04 12:07:00,60.2,59.3,29.77,SSE,157,7.0,11.0,97,0.00,,,0.00,Wunderground v.1.15,2013-12-04 17:07:00,
2013-12-04 12:12:00,60.6,59.5,29.76,South,176,7.0,11.0,96,0.00,,,0.00,Wunderground v.1.15,2013-12-04 17:12:00,
2013-12-04 12:17:00,61.0,59.9,29.76,SW,215,6.0,12.0,96,0.00,,,0.00,Wunderground v.1.15,2013-12-04 17:17:00,
2013-12-04 12:22:00,61.3,59.9,29.76,South,170,4.0,6.0,95,0.00,,,0.00,Wunderground v.1.15,2013-12-04 17:22:00,
2013-12-04 12:27:00,61.6,60.2,29.76,SSW,200,0.0,11.0,95,0.00,,,0.00,Wunderground v.1.15,2013-12-04 17:27:00,
2013-12-04 12:32:00,62.0,60.3,29.75,South,182,12.0,16.0,94,0.00,,,0.00,Wunderground v.1.15,2013-12-04 17:32:00,
2013-12-04 12:37:00,62.2,59.8,29.75,South,182,9.0,16.0,92,0.00,,,0.00,Wunderground v.1.15,2013-12-04 17:37:00,
2013-12-04 12:42:00,62.5,60.1,29.74,SSE,168,5.0,12.0,92,0.00,,,0.00,Wunderground v.1.15,2013-12-04 17:42:00,
2013-12-04 12:47:00,62.9,60.2,29.74,SSE,156,9.0,14.0,91,0.00,,,0.00,Wunderground v.1.15,2013-12-04 17:47:00,
2013-12-04 12:52:00,63.3,60.3,29.73,SSE,152,6.0,10.0,90,0.00,,,0.00,Wunderground v.1.15,2013-12-04 17:52:00,
2013-12-04 12:57:00,63.6,60.3,29.72,South,176,5.0,15.0,89,0.00,,,0.00,Wunderground v.1.15,2013-12-04 17:57:00,
2013-12-04 13:02:00,63.9,60.6,29.72,South,176,11.0,13.0,89,0.00,,,0.00,Wunderground v.1.15,2013-12-04 18:02:00,
2013-12-04 13:07:00,64.0,60.4,29.72,South,182,8.0,15.0,88,0.00,,,0.00,Wunderground v.1.15,2013-12-04 18:07:00,
2013-12-04 13:12:00,64.1,60.5,29.72,South,172,3.0,13.0,88,0.00,,,0.00,Wunderground v.1.15,2013-12-04 18:12:00,
2013-12-04 13:17:00,64.4,60.8,29.71,South,177,8.0,13.0,88,0.00,,,0.00,Wunderground v.1.15,2013-12-04 18:17:00,
2013-12-04 13:22:00,64.8,60.8,29.71,South,180,6.0,13.0,87,0.00,,,0.00,Wunderground v.1.15,2013-12-04 18:22:00,
2013-12-04 13:27:00,65.3,61.3,29.71,SSE,163,3.0,13.0,87,0.00,,,0.00,Wunderground v.1.15,2013-12-04 18:27:00,
2013-12-04 13:32:00,65.8,61.5,29.71,SW,224,5.0,7.0,86,0.00,,,0.00,Wunderground v.1.15,2013-12-04 18:32:00,
2013-12-04 13:37:00,66.2,61.2,29.71,South,169,12.0,12.0,84,0.00,,,0.00,Wunderground v.1.15,2013-12-04 18:37:00,
2013-12-04 13:42:00,66.3,61.3,29.71,SSW,209,10.0,12.0,84,0.00,,,0.00,Wunderground v.1.15,2013-12-04 18:42:00,
2013-12-04 13:47:00,66.2,60.9,29.71,South,189,7.0,12.0,83,0.00,,,0.00,Wunderground v.1.15,2013-12-04 18:47:00,
2013-12-04 13:52:00,66.2,60.9,29.71,SSW,205,12.0,14.0,83,0.00,,,0.00,Wunderground v.1.15,2013-12-04 18:52:00,
2013-12-04 13:57:00,66.2,60.5,29.71,WSW,244,3.0,14.0,82,0.00,,,0.00,Wunderground v.1.15,2013-12-04 18:57:00,
2013-12-04 14:02:00,66.3,60.6,29.71,South,185,7.0,12.0,82,0.00,,,0.00,Wunderground v.1.15,2013-12-04 19:02:00,
2013-12-04 14:07:00,66.7,60.7,29.71,SSW,213,9.0,15.0,81,0.00,,,0.00,Wunderground v.1.15,2013-12-04 19:07:00,
2013-12-04 14:12:00,67.2,60.8,29.71,SW,219,10.0,14.0,80,0.00,,,0.00,Wunderground v.1.15,2013-12-04 19:12:00,
2013-12-04 14:17:00,67.6,60.9,29.70,South,173,3.0,18.0,79,0.00,,,0.00,Wunderground v.1.15,2013-12-04 19:17:00,
2013-12-04 14:22:00,67.9,61.1,29.70,South,186,5.0,13.0,79,0.00,,,0.00,Wunderground v.1.15,2013-12-04 19:22:00,
2013-12-04 14:27:00,68.2,61.1,29.70,SSW,209,6.0,15.0,78,0.00,,,0.00,Wunderground v.1.15,2013-12-04 19:27:00,
2013-12-04 14:32:00,68.3,61.2,29.69,South,176,7.0,11.0,78,0.00,,,0.00,Wunderground v.1.15,2013-12-04 19:32:00,
2013-12-04 14:37:00,68.3,60.8,29.69,SSW,205,10.0,15.0,77,0.00,,,0.00,Wunderground v.1.15,2013-12-04 19:37:00,
2013-12-04 14:42:00,68.3,60.8,29.69,SSW,205,5.0,10.0,77,0.00,,,0.00,Wunderground v.1.15,2013-12-04 19:42:00,
2013-12-04 14:47:00,68.2,60.3,29.69,South,179,5.0,14.0,76,0.00,,,0.00,Wunderground v.1.15,2013-12-04 19:47:00,
2013-12-04 14:52:00,68.2,60.3,29.69,SW,236,4.0,11.0,76,0.00,,,0.00,Wunderground v.1.15,2013-12-04 19:52:00,
2013-12-04 14:57:00,68.2,60.3,29.69,SSW,212,4.0,11.0,76,0.00,,,0.00,Wunderground v.1.15,2013-12-04 19:57:00,
2013-12-04 15:02:00,68.2,60.3,29.69,South,170,3.0,12.0,76,0.00,,,0.00,Wunderground v.1.15,2013-12-04 20:02:00,
2013-12-04 15:07:00,68.3,60.1,29.68,South,169,8.0,15.0,75,0.00,,,0.00,Wunderground v.1.15,2013-12-04 20:07:00,
2013-12-04 15:12:00,68.3,60.1,29.68,South,185,5.0,13.0,75,0.00,,,0.00,Wunderground v.1.15,2013-12-04 20:12:00,
2013-12-04 15:17:00,68.4,60.2,29.68,SSW,205,3.0,13.0,75,0.00,,,0.00,Wunderground v.1.15,2013-12-04 20:17:00,
2013-12-04 15:22:00,68.4,59.8,29.68,SSE,157,11.0,17.0,74,0.00,,,0.00,Wunderground v.1.15,2013-12-04 20:22:00,
2013-12-04 15:27:00,68.5,59.9,29.68,SW,214,4.0,17.0,74,0.00,,,0.00,Wunderground v.1.15,2013-12-04 20:27:00,
2013-12-04 15:32:00,68.5,59.9,29.68,SW,223,3.0,15.0,74,0.00,,,0.00,Wunderground v.1.15,2013-12-04 20:32:00,
2013-12-04 15:37:00,68.5,59.9,29.68,SW,220,6.0,15.0,74,0.00,,,0.00,Wunderground v.1.15,2013-12-04 20:37:00,
2013-12-04 15:42:00,68.5,59.5,29.68,South,187,9.0,13.0,73,0.00,,,0.00,Wunderground v.1.15,2013-12-04 20:42:00,
2013-12-04 15:47:00,68.5,59.5,29.68,SSW,213,7.0,13.0,73,0.00,,,0.00,Wunderground v.1.15,2013-12-04 20:47:00,
2013-12-04 15:52:00,68.4,59.4,29.68,SW,218,1.0,11.0,73,0.00,,,0.00,Wunderground v.1.15,2013-12-04 20:52:00,
2013-12-04 15:57:00,68.4,59.4,29.69,SW,221,5.0,16.0,73,0.00,,,0.00,Wunderground v.1.15,2013-12-04 20:57:00,
2013-12-04 16:02:00,68.3,59.3,29.69,SW,216,0.0,11.0,73,0.00,,,0.00,Wunderground v.1.15,2013-12-04 21:02:00,
2013-12-04 16:07:00,68.2,59.2,29.69,SW,224,1.0,11.0,73,0.00,,,0.00,Wunderground v.1.15,2013-12-04 21:07:00,
2013-12-04 16:12:00,68.1,59.1,29.69,South,180,4.0,11.0,73,0.00,,,0.00,Wunderground v.1.15,2013-12-04 21:12:00,
2013-12-04 16:17:00,68.0,59.4,29.69,SSW,205,3.0,11.0,74,0.00,,,0.00,Wunderground v.1.15,2013-12-04 21:17:00,
2013-12-04 16:22:00,67.9,59.3,29.69,SSW,209,2.0,9.0,74,0.00,,,0.00,Wunderground v.1.15,2013-12-04 21:22:00,
2013-12-04 16:27:00,67.8,59.2,29.69,SW,224,6.0,9.0,74,0.00,,,0.00,Wunderground v.1.15,2013-12-04 21:27:00,
2013-12-04 16:32:00,67.6,59.0,29.69,SSW,200,0.0,10.0,74,0.00,,,0.00,Wunderground v.1.15,2013-12-04 21:32:00,
2013-12-04 16:37:00,67.5,59.3,29.69,South,183,6.0,10.0,75,0.00,,,0.00,Wunderground v.1.15,2013-12-04 21:37:00,
2013-12-04 16:42:00,67.4,59.2,29.69,South,174,1.0,9.0,75,0.00,,,0.00,Wunderground v.1.15,2013-12-04 21:42:00,
2013-12-04 16:47:00,67.2,59.0,29.68,South,171,7.0,13.0,75,0.00,,,0.00,Wunderground v.1.15,2013-12-04 21:47:00,
2013-12-04 16:52:00,67.0,59.2,29.68,South,171,2.0,10.0,76,0.00,,,0.00,Wunderground v.1.15,2013-12-04 21:52:00,
2013-12-04 16:57:00,66.8,59.0,29.69,SW,223,5.0,14.0,76,0.00,,,0.00,Wunderground v.1.15,2013-12-04 21:57:00,
2013-12-04 17:02:00,66.6,58.8,29.69,SSW,195,3.0,12.0,76,0.00,,,0.00,Wunderground v.1.15,2013-12-04 22:02:00,
2013-12-04 17:07:00,66.5,59.1,29.69,South,179,0.0,12.0,77,0.00,,,0.00,Wunderground v.1.15,2013-12-04 22:07:00,
2013-12-04 17:12:00,66.3,58.9,29.69,South,181,6.0,6.0,77,0.00,,,0.00,Wunderground v.1.15,2013-12-04 22:12:00,
2013-12-04 17:17:00,66.1,58.7,29.69,South,171,3.0,10.0,77,0.00,,,0.00,Wunderground v.1.15,2013-12-04 22:17:00,
2013-12-04 17:22:00,65.9,58.8,29.69,SSE,159,6.0,7.0,78,0.00,,,0.00,Wunderground v.1.15,2013-12-04 22:22:00,
2013-12-04 17:27:00,65.7,58.7,29.69,South,169,2.0,10.0,78,0.00,,,0.00,Wunderground v.1.15,2013-12-04 22:27:00,
2013-12-04 17:32:00,65.6,58.6,29.69,SSE,167,9.0,9.0,78,0.00,,,0.00,Wunderground v.1.15,2013-12-04 22:32:00,
2013-12-04 17:37:00,65.4,58.4,29.69,SSE,164,5.0,9.0,78,0.00,,,0.00,Wunderground v.1.15,2013-12-04 22:37:00,
2013-12-04 17:42:00,65.3,58.3,29.69,South,181,9.0,12.0,78,0.00,,,0.00,Wunderground v.1.15,2013-12-04 22:42:00,
2013-12-04 17:47:00,65.2,58.5,29.69,South,171,3.0,12.0,79,0.00,,,0.00,Wunderground v.1.15,2013-12-04 22:47:00,
2013-12-04 17:53:00,65.1,58.4,29.69,South,171,3.0,11.0,79,0.00,,,0.00,Wunderground v.1.15,2013-12-04 22:53:00,
2013-12-04 17:58:00,65.0,58.3,29.69,South,178,5.0,11.0,79,0.00,,,0.00,Wunderground v.1.15,2013-12-04 22:58:00,
2013-12-04 18:03:00,64.9,58.2,29.69,South,179,3.0,10.0,79,0.00,,,0.00,Wunderground v.1.15,2013-12-04 23:03:00,
2013-12-04 18:08:00,64.8,58.1,29.69,South,174,3.0,10.0,79,0.00,,,0.00,Wunderground v.1.15,2013-12-04 23:08:00,
2013-12-04 18:13:00,64.7,58.0,29.70,South,180,5.0,7.0,79,0.00,,,0.00,Wunderground v.1.15,2013-12-04 23:13:00,
2013-12-04 18:18:00,64.6,58.3,29.70,South,169,4.0,7.0,80,0.00,,,0.00,Wunderground v.1.15,2013-12-04 23:18:00,
2013-12-04 18:23:00,64.6,58.3,29.70,SSE,165,4.0,8.0,80,0.00,,,0.00,Wunderground v.1.15,2013-12-04 23:23:00,
2013-12-04 18:28:00,64.5,58.2,29.70,South,175,4.0,9.0,80,0.00,,,0.00,Wunderground v.1.15,2013-12-04 23:28:00,
2013-12-04 18:33:00,64.5,57.8,29.70,SSE,165,3.0,7.0,79,0.00,,,0.00,Wunderground v.1.15,2013-12-04 23:33:00,
2013-12-04 18:38:00,64.3,57.6,29.70,SSE,168,4.0,7.0,79,0.00,,,0.00,Wunderground v.1.15,2013-12-04 23:38:00,
2013-12-04 18:43:00,64.1,57.8,29.70,South,169,4.0,6.0,80,0.00,,,0.00,Wunderground v.1.15,2013-12-04 23:43:00,
2013-12-04 18:48:00,63.9,57.6,29.70,SSE,167,3.0,6.0,80,0.00,,,0.00,Wunderground v.1.15,2013-12-04 23:48:00,
2013-12-04 18:53:00,63.7,57.4,29.70,South,171,4.0,7.0,80,0.00,,,0.00,Wunderground v.1.15,2013-12-04 23:53:00,
2013-12-04 18:58:00,63.6,57.7,29.70,SSE,167,3.0,7.0,81,0.00,,,0.00,Wunderground v.1.15,2013-12-04 23:58:00,
2013-12-04 19:03:00,63.6,57.7,29.70,South,178,4.0,10.0,81,0.00,,,0.00,Wunderground v.1.15,2013-12-05 00:03:00,
2013-12-04 19:08:00,63.5,57.6,29.70,South,174,2.0,10.0,81,0.00,,,0.00,Wunderground v.1.15,2013-12-05 00:08:00,
2013-12-04 19:13:00,63.6,57.7,29.70,South,169,9.0,10.0,81,0.00,,,0.00,Wunderground v.1.15,2013-12-05 00:13:00,
2013-12-04 19:18:00,63.8,57.5,29.71,South,190,9.0,10.0,80,0.00,,,0.00,Wunderground v.1.15,2013-12-05 00:18:00,
2013-12-04 19:23:00,64.0,57.7,29.71,South,176,9.0,12.0,80,0.00,,,0.00,Wunderground v.1.15,2013-12-05 00:23:00,
2013-12-04 19:28:00,64.1,57.5,29.71,South,178,5.0,12.0,79,0.00,,,0.00,Wunderground v.1.15,2013-12-05 00:28:00,
2013-12-04 19:33:00,64.2,57.5,29.71,South,169,5.0,9.0,79,0.00,,,0.00,Wunderground v.1.15,2013-12-05 00:33:00,
2013-12-04 19:38:00,64.4,57.7,29.71,South,185,9.0,11.0,79,0.00,,,0.00,Wunderground v.1.15,2013-12-05 00:38:00,
2013-12-04 19:43:00,64.5,57.5,29.71,South,190,4.0,11.0,78,0.00,,,0.00,Wunderground v.1.15,2013-12-05 00:43:00,
2013-12-04 19:48:00,64.7,57.7,29.71,South,182,3.0,13.0,78,0.00,,,0.00,Wunderground v.1.15,2013-12-05 00:48:00,
2013-12-04 19:53:00,64.9,57.5,29.70,South,184,7.0,12.0,77,0.00,,,0.00,Wunderground v.1.15,2013-12-05 00:53:00,
2013-12-04 19:58:00,65.0,57.6,29.71,SSW,209,3.0,12.0,77,0.00,,,0.00,Wunderground v.1.15,2013-12-05 00:58:00,
2013-12-04 20:03:00,65.1,57.7,29.71,SSE,165,3.0,11.0,77,0.00,,,0.00,Wunderground v.1.15,2013-12-05 01:03:00,
2013-12-04 20:08:00,65.1,57.7,29.71,SSW,200,3.0,11.0,77,0.00,,,0.00,Wunderground v.1.15,2013-12-05 01:08:00,
2013-12-04 20:13:00,65.2,57.8,29.71,SSW,195,3.0,9.0,77,0.00,,,0.00,Wunderground v.1.15,2013-12-05 01:13:00,
2013-12-04 20:18:00,65.3,57.5,29.72,SW,223,6.0,16.0,76,0.00,,,0.00,Wunderground v.1.15,2013-12-05 01:18:00,
2013-12-04 20:23:00,65.6,57.8,29.72,SSW,210,2.0,13.0,76,0.00,,,0.00,Wunderground v.1.15,2013-12-05 01:23:00,
2013-12-04 20:28:00,65.8,57.7,29.72,SW,227,3.0,13.0,75,0.00,,,0.00,Wunderground v.1.15,2013-12-05 01:28:00,
2013-12-04 20:33:00,66.0,57.8,29.72,SW,222,7.0,16.0,75,0.00,,,0.00,Wunderground v.1.15,2013-12-05 01:33:00,
2013-12-04 20:38:00,66.2,58.0,29.73,South,185,4.0,16.0,75,0.00,,,0.00,Wunderground v.1.15,2013-12-05 01:38:00,
2013-12-04 20:43:00,66.3,57.8,29.73,SW,222,4.0,11.0,74,0.00,,,0.00,Wunderground v.1.15,2013-12-05 01:43:00,
2013-12-04 20:48:00,66.3,57.8,29.73,SSW,209,5.0,15.0,74,0.00,,,0.00,Wunderground v.1.15,2013-12-05 01:48:00,
2013-12-04 20:53:00,66.4,57.9,29.73,SW,233,7.0,15.0,74,0.00,,,0.00,Wunderground v.1.15,2013-12-05 01:53:00,
2013-12-04 20:58:00,66.4,57.9,29.74,SSW,200,4.0,15.0,74,0.00,,,0.00,Wunderground v.1.15,2013-12-05 01:58:00,
2013-12-04 21:03:00,66.4,57.9,29.74,SW,236,3.0,12.0,74,0.00,,,0.00,Wunderground v.1.15,2013-12-05 02:03:00,
2013-12-04 21:08:00,66.3,57.8,29.74,SW,234,8.0,12.0,74,0.00,,,0.00,Wunderground v.1.15,2013-12-05 02:08:00,
2013-12-04 21:13:00,66.2,58.0,29.75,SW,229,11.0,11.0,75,0.00,,,0.00,Wunderground v.1.15,2013-12-05 02:13:00,
2013-12-04 21:18:00,66.3,58.1,29.75,SW,224,4.0,12.0,75,0.00,,,0.00,Wunderground v.1.15,2013-12-05 02:18:00,
2013-12-04 21:23:00,66.3,58.1,29.75,SW,215,3.0,12.0,75,0.00,,,0.00,Wunderground v.1.15,2013-12-05 02:23:00,
2013-12-04 21:28:00,66.3,58.1,29.75,SSW,213,8.0,13.0,75,0.00,,,0.00,Wunderground v.1.15,2013-12-05 02:28:00,
2013-12-04 21:33:00,66.4,57.9,29.76,SW,233,7.0,12.0,74,0.00,,,0.00,Wunderground v.1.15,2013-12-05 02:33:00,
2013-12-04 21:38:00,66.4,57.9,29.76,SW,228,2.0,12.0,74,0.00,,,0.00,Wunderground v.1.15,2013-12-05 02:38:00,
2013-12-04 21:43:00,66.4,58.2,29.76,SW,233,4.0,15.0,75,0.00,,,0.00,Wunderground v.1.15,2013-12-05 02:43:00,
2013-12-04 21:48:00,66.4,58.2,29.76,WSW,246,7.0,15.0,75,0.00,,,0.00,Wunderground v.1.15,2013-12-05 02:48:00,
2013-12-04 21:53:00,66.5,58.3,29.76,WSW,238,13.0,13.0,75,0.00,,,0.00,Wunderground v.1.15,2013-12-05 02:53:00,
2013-12-04 21:58:00,66.5,58.3,29.75,SW,226,9.0,13.0,75,0.00,,,0.00,Wunderground v.1.15,2013-12-05 02:58:00,
2013-12-04 22:03:00,66.5,58.3,29.75,SW,231,13.0,13.0,75,0.00,,,0.00,Wunderground v.1.15,2013-12-05 03:03:00,
2013-12-04 22:08:00,66.6,58.4,29.75,SW,226,3.0,13.0,75,0.00,,,0.00,Wunderground v.1.15,2013-12-05 03:08:00,
2013-12-04 22:13:00,66.6,58.4,29.76,SW,222,3.0,12.0,75,0.00,,,0.00,Wunderground v.1.15,2013-12-05 03:13:00,
2013-12-04 22:18:00,66.6,58.4,29.76,SW,233,15.0,15.0,75,0.00,,,0.00,Wunderground v.1.15,2013-12-05 03:18:00,
2013-12-04 22:23:00,66.7,58.5,29.77,WSW,242,10.0,11.0,75,0.00,,,0.00,Wunderground v.1.15,2013-12-05 03:23:00,
2013-12-04 22:28:00,66.8,58.6,29.77,SW,219,2.0,17.0,75,0.00,,,0.00,Wunderground v.1.15,2013-12-05 03:28:00,
2013-12-04 22:33:00,66.9,58.7,29.77,WSW,241,15.0,16.0,75,0.00,,,0.00,Wunderground v.1.15,2013-12-05 03:33:00,
2013-12-04 22:38:00,67.0,58.8,29.77,WSW,244,10.0,16.0,75,0.00,,,0.00,Wunderground v.1.15,2013-12-05 03:38:00,
2013-12-04 22:43:00,67.0,58.8,29.77,SW,219,6.0,15.0,75,0.00,,,0.00,Wunderground v.1.15,2013-12-05 03:43:00,
2013-12-04 22:48:00,67.0,58.8,29.76,SW,230,7.0,15.0,75,0.00,,,0.00,Wunderground v.1.15,2013-12-05 03:48:00,
2013-12-04 22:53:00,67.0,59.2,29.77,WSW,248,5.0,11.0,76,0.00,,,0.00,Wunderground v.1.15,2013-12-05 03:53:00,
2013-12-04 22:58:00,67.0,59.2,29.77,WSW,251,5.0,12.0,76,0.00,,,0.00,Wunderground v.1.15,2013-12-05 03:58:00,
2013-12-04 23:03:00,67.1,59.3,29.77,SW,220,1.0,15.0,76,0.00,,,0.00,Wunderground v.1.15,2013-12-05 04:03:00,
2013-12-04 23:08:00,67.1,59.3,29.77,SW,228,4.0,15.0,76,0.00,,,0.00,Wunderground v.1.15,2013-12-05 04:08:00,
2013-12-04 23:13:00,67.1,59.3,29.77,SW,236,7.0,12.0,76,0.00,,,0.00,Wunderground v.1.15,2013-12-05 04:13:00,
2013-12-04 23:18:00,67.1,59.3,29.77,WSW,244,4.0,15.0,76,0.00,,,0.00,Wunderground v.1.15,2013-12-05 04:18:00,
2013-12-04 23:23:00,67.1,59.3,29.78,SW,236,5.0,13.0,76,0.00,,,0.00,Wunderground v.1.15,2013-12-05 04:23:00,
2013-12-04 23:28:00,67.2,59.4,29.78,SW,234,12.0,16.0,76,0.00,,,0.00,Wunderground v.1.15,2013-12-05 04:28:00,
2013-12-04 23:33:00,67.2,59.7,29.78,WSW,241,7.0,15.0,77,0.00,,,0.00,Wunderground v.1.15,2013-12-05 04:33:00,
2013-12-04 23:38:00,67.1,59.6,29.78,SW,228,12.0,16.0,77,0.00,,,0.00,Wunderground v.1.15,2013-12-05 04:38:00,
2013-12-04 23:43:00,67.1,59.6,29.78,SW,214,10.0,14.0,77,0.00,,,0.00,Wunderground v.1.15,2013-12-05 04:43:00,
2013-12-04 23:48:00,67.2,59.7,29.78,SSW,195,6.0,14.0,77,0.00,,,0.00,Wunderground v.1.15,2013-12-05 04:48:00,
2013-12-04 23:53:00,67.1,59.6,29.78,SW,228,7.0,15.0,77,0.00,,,0.00,Wunderground v.1.15,2013-12-05 04:53:00,
2013-12-04 23:58:00,67.1,60.0,29.78,SW,217,4.0,15.0,78,0.00,,,0.00,Wunderground v.1.15,2013-12-05 04:58:00,